sat.trackr.live / text

‹ back to catalog

STARLINK-37577

NORAD 69452 · 2026-127K

PAYLOAD ACTIVE UNKNOWN

§ Identity

Operator
Country
US
Launch date
2026-06-08
Launch site
AFETR
Launch vehicle
Mass (kg)
RCS (m²)

Purposes: comms

External: N2YO · Heavens-Above · Gunter

§ Orbital elements

Epoch: 2026-09-20T03:31:46.098048Z

Period
93.85 min
Inclination
53.1582°
Eccentricity
0.0001214
Mean motion
15.34399532 rev/d
Perigee alt
461.9 km
Apogee alt
463.5 km
Semi-major
6,840.8 km
B*
3.7480e-4
RAAN
167.6785°
Arg perigee
69.7600°
Mean anomaly
290.3533°
Rev number
1,613

§ Raw data

STARLINK-375771 69452U 26127K   26263.14706132  .00012308  00000+0  37480-3 0  99952 69452  53.1582 167.6785 0001214  69.7600 290.3533 15.34399532 16138

JSON: /api/v1/satellites/69452 · /tle

For live sub-satellite position, see the globe view (requires WebGL).

§ Visibility from observer

Set your observer location to see the next 7 days of passes ≥ 10°. The values pass through the URL so the page stays shareable.

No JS? Fill the form by hand. The geolocation button needs JavaScript.